Погода в Сквире

Украина / Киевская область     49°43′54″N   29°39′58″E
В апреле 2022 года жителям России запретили посещать сайт meteo.paraplan.net по решению Генеральной прокуратуры. Аудитория сайта уменьшилась в 10 раз. Владельцы сайта не видят смысла в поддержке погодного сервера в таких условиях. Сайт будет закрыт в октябре.
темп.,
°C
ветер,
м/с
пор.,
м/с
влажн.,
%
обл.,
%
осадки,
мм/ч
давл.,
гПа
погр.,
м
3 октября, пн
пн300:00+8зсз71388100 1.1 10041129
03:00+9зсз91685100 2.3 10031236
06:00+10з91682100 0.1 10031057
09:00+10з91480100 0.1 10031063
12:00+11з9147791 0.1 10041183
15:00+11зюз91474100 0.3 10051355
18:00+10зюз81376100 0.0 10051052
21:00+9зюз81483100 0.1 1004914
4 октября, вт
вт400:00+7з41282100 2.6 1006639
03:00+8з71285100 2.8 1007982
06:00+8з81385100 0.3 10081403
09:00+8з81286100 1.1 10091220
12:00+8з71284100 0.7 10121143
15:00+10з71175100 0.9 10131195
18:00+10з71278100 0.4 10151181
21:00+9з6138568 0.6 1016641
5 октября, ср
ср500:00+8з5139081 0.0 1018465
03:00+8з6139136 0.1 1019478
06:00+8з6129317 0.0 1021439
09:00+8зсз61087100 0.0 1023613
12:00+9зсз5878100 0.0 1024808
15:00+13зсз5759100 0.0 10231172
18:00+11зсз3471100 0.0 102472
21:00+11зюз3574100 0.0 102595
6 октября, чт
чт600:00+10зюз3680100 0.0 1025136
03:00+10зюз3679100 0.0 1025138
06:00+10зюз3778100 0.0 1025145
09:00+12зюз496985 0.0 1025249
12:00+17зюз694864 0.0 1024672
15:00+19з684715 0.0 10231066
18:00+16з486798 0.0 1024172
21:00+12зсз3108461 0.0 1025221
7 октября, пт
пт700:00+11зсз4109310 0.0 1027221
03:00+11сз49955 0.0 1028231
06:00+9ссз37955 0.0 1029148
09:00+11ссз47784 0.0 1029252
12:00+15ссз45530 0.0 1029797
15:00+17ссз44480 0.0 10281109
18:00+13с22611 0.0 102717
21:00+10с227099 0.0 102710